Weather History for Jaipur, India

Change the Weather History Date:

Wednesday, April 9, 2014

  Actual Average Record
Temperature  
Mean Temperature 80 °F -  
Max Temperature 94 °F - - ()
Min Temperature 67 °F - - ()
Cooling Degree Days 16    
Growing Degree Days 30 (Base 50)    
Moisture  
Dew Point 35 °F    
Average Humidity 19    
Maximum Humidity 43    
Minimum Humidity 4    
Precipitation  
Precipitation 0.00 in - - ()
Sea Level Pressure  
Sea Level Pressure 29.89 in    
Wind  
Wind Speed 3 mph ()    
Max Wind Speed 10 mph    
Max Gust Speed -    
Visibility 2.2 miles    
Events      
T = Trace of Precipitation, MM = Missing Value Source: Averaged Metar Reports

Daily Weather History Graph

Daily Weather History Graph

Search for Another Location

Airport:

Trip Planner

Search our weather history database for the weather conditions in past years. The results will help you decide how hot, cold, wet, or windy it might be!

Date:

Astronomy

Apr. 09, 2014 Rise Set
Actual Time 6:09 AM IST 6:47 PM IST
Civil Twilight 5:45 AM IST 7:11 PM IST
Nautical Twilight 5:18 AM IST 7:38 PM IST
Astronomical Twilight 4:50 AM IST 8:07 PM IST
Moon 1:39 PM IST (4/9) 2:12 AM IST (4/9)
Length of Visible Light 13h 25m
Length of Day
12h 38m
Waxing Gibbous, 68% of the Moon is Illuminated
Apr 9
Waxing Gibbous
Apr 15
Full
Apr 22
Last Quarter
Apr 29
New
May 7
First Quarter

Hourly Weather History & Observations

Time (IST) Temp. Dew Point Humidity Pressure Visibility Wind Dir Wind Speed Gust Speed Precip Events Conditions
12:00 AM 78.8 °F 37.4 °F 23% 29.89 in 2.2 mi Variable 2.3 mph - N/A   Haze
1:00 AM 75.2 °F 39.2 °F 27% 29.89 in 2.2 mi Calm Calm - N/A   Haze
2:00 AM 75.2 °F 39.2 °F 27% 29.86 in 2.2 mi Variable 1.2 mph - N/A   Haze
2:30 AM 77 °F 39 °F 15% 29.84 in 2 mi NE 4.6 mph - -   Haze
3:00 AM 77.0 °F 41.0 °F 28% 29.86 in 2.2 mi NE 6.9 mph - N/A   Haze
5:00 AM 73.4 °F 44.6 °F 36% 29.86 in 2.2 mi Variable 2.3 mph - N/A   Haze
5:30 AM 72 °F 46 °F 29% 29.82 in 1 mi Calm Calm - -   Haze
7:00 AM 69.8 °F 46.4 °F 43% 29.92 in 2.2 mi Calm Calm - N/A   Haze
8:00 AM 75.2 °F 48.2 °F 38% 29.95 in 2.2 mi Calm Calm - N/A   Haze
8:30 AM 76 °F 50 °F 30% 29.87 in 2 mi Calm Calm - -   Haze
9:00 AM 78.8 °F 48.2 °F 34% 29.95 in 2.2 mi SW 3.5 mph - N/A   Haze
10:00 AM 82.4 °F 46.4 °F 28% 29.98 in 2.5 mi WSW 4.6 mph - N/A   Haze
11:00 AM 86.0 °F 44.6 °F 23% 29.98 in 2.5 mi WNW 5.8 mph - N/A   Haze
11:30 AM 86 °F 41 °F 12% 29.89 in 2 mi WNW 6.9 mph - -   Haze
12:00 PM 89.6 °F 33.8 °F 14% 29.95 in 2.5 mi NW 8.1 mph - N/A   Haze
1:00 PM 91.4 °F 30.2 °F 11% 29.95 in 2.5 mi Variable 10.4 mph - N/A   Haze
2:00 PM 91.4 °F 30.2 °F 11% 29.92 in 2.5 mi Variable 5.8 mph - N/A   Haze
2:30 PM 91 °F 28 °F 5% 29.82 in 1 mi West 9.2 mph - -   Haze
3:00 PM 91.4 °F 26.6 °F 10% 29.89 in 2.5 mi NW 9.2 mph - N/A   Haze
4:00 PM 93.2 °F 24.8 °F 9% 29.89 in 2.5 mi Variable 8.1 mph - N/A   Haze
5:00 PM 91.4 °F 24.8 °F 9% 29.86 in 2.5 mi Variable 8.1 mph - N/A   Haze
5:30 PM 91 °F 25 °F 4% 29.78 in 2 mi WNW 4.6 mph - -   Haze
6:00 PM 91.4 °F 24.8 °F 9% 29.89 in 2.5 mi Variable 8.1 mph - N/A   Haze
7:00 PM 91.4 °F 24.8 °F 9% 29.89 in 2.5 mi Variable 8.1 mph - N/A   Haze
8:00 PM 86.0 °F 28.4 °F 12% 29.89 in 2.5 mi NNE 3.5 mph - N/A   Haze
8:30 PM 85 °F 30 °F 7% 29.82 in 2 mi NE 3.5 mph - -   Haze
9:00 PM 84.2 °F 28.4 °F 13% 29.92 in 2.2 mi Variable 3.5 mph - N/A   Haze
10:00 PM 80.6 °F 32.0 °F 17% 29.92 in 2.2 mi Variable 2.3 mph - N/A   Haze
11:00 PM 78.8 °F 28.4 °F 16% 29.92 in 2.2 mi Variable 1.2 mph - N/A   Haze
11:30 PM 78 °F 33 °F 11% 29.85 in 1 mi NNE 2.3 mph - -   Haze